Hays, KS

9:15 AM CST on December 15, 2017 (GMT -0600)
Hays Regional

Weather History for KHYS - May, 2013

Change the Weather History Date:

Friday, May 24, 2013

  Actual Average Record
Temperature  
Mean Temperature 68 °F -  
Max Temperature 80 °F 76 °F 91 °F (2004)
Min Temperature 55 °F 51 °F 39 °F (2001)
Cooling Degree Days 2    
Growing Degree Days 18 (Base 50)    
Moisture  
Dew Point 58 °F    
Average Humidity 73    
Maximum Humidity 88    
Minimum Humidity 54    
Precipitation  
Precipitation 0.00 in - - ()
Sea Level Pressure  
Sea Level Pressure 30.10 in    
Wind  
Wind Speed 16 mph (SE)    
Max Wind Speed 30 mph    
Max Gust Speed 36 mph    
Visibility 10 miles    
Events      
Averages and records for this station are not official NWS values.
T = Trace of Precipitation, MM = Missing Value Source: NWS Daily Summary

Daily Weather History Graph

Daily Weather History Graph

Search for Another Location

Airport or City:

Trip Planner

Search our weather history database for the weather conditions in past years. The results will help you decide how hot, cold, wet, or windy it might be!

Date:

Astronomy

May. 24, 2013 Rise Set
Actual Time 6:17 AM CDT 8:50 PM CDT
Civil Twilight 5:46 AM CDT 9:21 PM CDT
Nautical Twilight 5:08 AM CDT 9:59 PM CDT
Astronomical Twilight 4:26 AM CDT 10:42 PM CDT
Moon 8:34 PM CDT (5/24) 5:50 AM CDT (5/24)
Length of Visible Light 15h 34m
Length of Day
14h 32m
Full, 100% of the Moon is Illuminated
May 24
Full
May 24
Full
May 31
Last Quarter
Jun 8
New
Jun 16
First Quarter

Hourly Weather History & Observations

Time (CDT) Temp. Heat Index Dew Point Humidity Pressure Visibility Wind Dir Wind Speed Gust Speed Precip Events Conditions
12:15 AM 57.2 °F - 51.8 °F 82% 30.18 in 10.0 mi East 9.2 mph - N/A   Partly Cloudy
12:35 AM 57.2 °F - 51.8 °F 82% 30.17 in 10.0 mi East 11.5 mph - N/A   Mostly Cloudy
12:55 AM 59.0 °F - 51.8 °F 77% 30.16 in 10.0 mi East 13.8 mph - N/A   Overcast
1:15 AM 59.0 °F - 51.8 °F 77% 30.16 in 10.0 mi East 16.1 mph 19.6 mph N/A   Overcast
1:35 AM 59.0 °F - 51.8 °F 77% 30.16 in 10.0 mi East 18.4 mph - N/A   Partly Cloudy
1:55 AM 59.0 °F - 51.8 °F 77% 30.17 in 10.0 mi ESE 15.0 mph - N/A   Scattered Clouds
2:15 AM 59.0 °F - 51.8 °F 77% 30.17 in 10.0 mi ESE 16.1 mph 20.7 mph N/A   Overcast
2:35 AM 59.0 °F - 51.8 °F 77% 30.17 in 10.0 mi ESE 15.0 mph - N/A   Overcast
2:55 AM 59.0 °F - 51.8 °F 77% 30.17 in 10.0 mi ESE 16.1 mph 23.0 mph N/A   Overcast
3:15 AM 59.0 °F - 51.8 °F 77% 30.17 in 10.0 mi ESE 16.1 mph - N/A   Overcast
3:35 AM 59.0 °F - 51.8 °F 77% 30.17 in 10.0 mi ESE 13.8 mph - N/A   Overcast
3:55 AM 57.2 °F - 51.8 °F 82% 30.17 in 10.0 mi SE 13.8 mph - N/A   Overcast
4:15 AM 57.2 °F - 51.8 °F 82% 30.17 in 10.0 mi SE 13.8 mph - N/A   Overcast
4:35 AM 57.2 °F - 51.8 °F 82% 30.17 in 10.0 mi ESE 15.0 mph - N/A   Mostly Cloudy
4:55 AM 57.2 °F - 51.8 °F 82% 30.16 in 10.0 mi SE 12.7 mph - N/A   Mostly Cloudy
5:15 AM 55.4 °F - 51.8 °F 88% 30.15 in 10.0 mi SE 13.8 mph - N/A   Mostly Cloudy
5:35 AM 55.4 °F - 51.8 °F 88% 30.15 in 10.0 mi SE 11.5 mph - N/A   Mostly Cloudy
5:55 AM 55.4 °F - 51.8 °F 88% 30.15 in 10.0 mi ESE 12.7 mph - N/A   Mostly Cloudy
6:15 AM 55.4 °F - 51.8 °F 88% 30.15 in 10.0 mi ESE 13.8 mph - N/A   Overcast
6:35 AM 55.4 °F - 51.8 °F 88% 30.16 in 10.0 mi ESE 12.7 mph - N/A   Overcast
6:55 AM 55.4 °F - 51.8 °F 88% 30.15 in 10.0 mi ESE 12.7 mph - N/A   Overcast
7:15 AM 55.4 °F - 51.8 °F 88% 30.15 in 10.0 mi ESE 15.0 mph 18.4 mph N/A   Overcast
7:35 AM 57.2 °F - 51.8 °F 82% 30.16 in 10.0 mi SE 15.0 mph 19.6 mph N/A   Overcast
7:55 AM 57.2 °F - 51.8 °F 82% 30.16 in 10.0 mi SE 17.3 mph - N/A   Overcast
8:15 AM 57.2 °F - 51.8 °F 82% 30.17 in 10.0 mi SE 15.0 mph 20.7 mph N/A   Overcast
8:35 AM 57.2 °F - 51.8 °F 82% 30.18 in 10.0 mi SSE 19.6 mph 23.0 mph N/A   Overcast
8:55 AM 59.0 °F - 53.6 °F 82% 30.19 in 10.0 mi SSE 15.0 mph 19.6 mph N/A   Overcast
9:15 AM 60.8 °F - 51.8 °F 72% 30.19 in 10.0 mi SSE 15.0 mph - N/A   Overcast
9:35 AM 60.8 °F - 53.6 °F 77% 30.18 in 10.0 mi SSE 16.1 mph - N/A   Overcast
9:55 AM 62.6 °F - 53.6 °F 72% 30.18 in 10.0 mi SE 17.3 mph - N/A   Overcast
10:15 AM 64.4 °F - 53.6 °F 68% 30.17 in 10.0 mi SSE 17.3 mph - N/A   Overcast
10:35 AM 64.4 °F - 55.4 °F 73% 30.18 in 10.0 mi SSE 18.4 mph 24.2 mph N/A   Overcast
10:55 AM 66.2 °F - 55.4 °F 68% 30.17 in 10.0 mi SE 20.7 mph 25.3 mph N/A   Overcast
11:15 AM 69.8 °F - 55.4 °F 60% 30.17 in 10.0 mi SSE 18.4 mph 26.5 mph N/A   Mostly Cloudy
11:35 AM 69.8 °F - 55.4 °F 60% 30.16 in 10.0 mi SSE 18.4 mph 24.2 mph N/A   Overcast
11:55 AM 69.8 °F - 57.2 °F 64% 30.15 in 10.0 mi SSE 19.6 mph 25.3 mph N/A   Overcast
12:15 PM 71.6 °F - 57.2 °F 60% 30.14 in 10.0 mi SSE 18.4 mph 24.2 mph N/A   Overcast
12:35 PM 71.6 °F - 57.2 °F 60% 30.13 in 10.0 mi SSE 20.7 mph 26.5 mph N/A   Overcast
12:55 PM 73.4 °F - 59.0 °F 61% 30.12 in 10.0 mi SE 23.0 mph 27.6 mph N/A   Mostly Cloudy
1:15 PM 73.4 °F - 59.0 °F 61% 30.12 in 10.0 mi South 19.6 mph 27.6 mph N/A   Mostly Cloudy
1:35 PM 75.2 °F - 60.8 °F 61% 30.11 in 10.0 mi SE 24.2 mph 28.8 mph N/A   Mostly Cloudy
1:55 PM 75.2 °F - 60.8 °F 61% 30.11 in 10.0 mi South 21.9 mph 27.6 mph N/A   Scattered Clouds
2:15 PM 75.2 °F - 59.0 °F 57% 30.10 in 10.0 mi South 19.6 mph 27.6 mph N/A   Scattered Clouds
2:35 PM 75.2 °F - 60.8 °F 61% 30.09 in 10.0 mi South 19.6 mph 29.9 mph N/A   Partly Cloudy
2:55 PM 75.2 °F - 60.8 °F 61% 30.09 in 10.0 mi SSE 20.7 mph 26.5 mph N/A   Scattered Clouds
3:15 PM 80.6 °F 81.8 °F 62.6 °F 54% 30.08 in 10.0 mi SSE 20.7 mph 29.9 mph N/A   Partly Cloudy
3:35 PM 78.8 °F - 62.6 °F 57% 30.07 in 10.0 mi SSE 20.7 mph 27.6 mph N/A   Partly Cloudy
3:55 PM 80.6 °F 81.8 °F 62.6 °F 54% 30.06 in 10.0 mi SSE 24.2 mph 29.9 mph N/A   Partly Cloudy
4:15 PM 78.8 °F - 62.6 °F 57% 30.06 in 10.0 mi South 20.7 mph 28.8 mph N/A   Scattered Clouds
4:35 PM 75.2 °F - 62.6 °F 65% 30.05 in 10.0 mi SSE 24.2 mph 27.6 mph N/A   Mostly Cloudy
4:55 PM 78.8 °F - 62.6 °F 57% 30.04 in 10.0 mi SSE 20.7 mph 25.3 mph N/A   Scattered Clouds
5:15 PM 78.8 °F - 62.6 °F 57% 30.02 in 10.0 mi SSE 28.8 mph 34.5 mph N/A   Mostly Cloudy
5:35 PM 77.0 °F - 62.6 °F 61% 30.02 in 10.0 mi SSE 25.3 mph 31.1 mph N/A   Partly Cloudy
5:55 PM 77.0 °F - 62.6 °F 61% 30.01 in 10.0 mi SSE 27.6 mph 35.7 mph N/A   Partly Cloudy
6:15 PM - - - N/A% 30.00 in 9.0 mi SE 29.9 mph 35.7 mph N/A   Scattered Clouds
6:35 PM 75.2 °F - 62.6 °F 65% 30.00 in 10.0 mi SSE 26.5 mph 33.4 mph N/A   Partly Cloudy
6:55 PM 73.4 °F - 62.6 °F 69% 30.00 in 10.0 mi SSE 24.2 mph - N/A   Scattered Clouds
7:15 PM 73.4 °F - 62.6 °F 69% 29.99 in 10.0 mi SSE 21.9 mph 27.6 mph N/A   Scattered Clouds
7:35 PM 73.4 °F - 62.6 °F 69% 29.98 in 10.0 mi SSE 21.9 mph 26.5 mph N/A   Mostly Cloudy
7:55 PM 71.6 °F - 62.6 °F 73% 29.97 in 10.0 mi SSE 19.6 mph 26.5 mph N/A   Scattered Clouds
8:15 PM 71.6 °F - 64.4 °F 78% 29.98 in 10.0 mi SSE 21.9 mph - N/A   Clear
8:35 PM 71.6 °F - 64.4 °F 78% 29.98 in 10.0 mi SSE 18.4 mph 25.3 mph N/A   Clear
8:55 PM 71.6 °F - 64.4 °F 78% 29.98 in 9.0 mi SSE 19.6 mph - N/A   Clear
9:15 PM 71.6 °F - 64.4 °F 78% 29.98 in 10.0 mi SE 20.7 mph 26.5 mph N/A   Clear
9:35 PM 71.6 °F - 64.4 °F 78% 29.98 in 10.0 mi SE 19.6 mph 28.8 mph N/A   Scattered Clouds
9:55 PM 71.6 °F - 64.4 °F 78% 29.99 in 10.0 mi SE 19.6 mph 25.3 mph N/A   Mostly Cloudy
10:15 PM 71.6 °F - 66.2 °F 83% 29.99 in 10.0 mi SSE 20.7 mph 25.3 mph N/A   Overcast
10:35 PM 71.6 °F - 66.2 °F 83% 30.00 in 10.0 mi SSE 18.4 mph 28.8 mph N/A   Overcast
10:55 PM 71.6 °F - 66.2 °F 83% 30.01 in 10.0 mi SSE 20.7 mph 26.5 mph N/A   Overcast
11:15 PM 71.6 °F - 66.2 °F 83% 30.03 in 10.0 mi SSE 20.7 mph 26.5 mph N/A   Overcast
11:35 PM 71.6 °F - 66.2 °F 83% 30.03 in 10.0 mi SSE 20.7 mph 28.8 mph N/A   Overcast
11:55 PM 71.6 °F - 66.2 °F 83% 30.03 in 10.0 mi SSE 20.7 mph 26.5 mph N/A   Overcast